HSKSAT (55182 NORAD) Tracking and Keplerian Element Data

This shows tracking and keplerian element data for the satellite.

Feedback or suggestion? Click here.




ElementValue
Catalog55182
NameHSKSAT
Epoch Orbit1224
Epoch Day84.88808223
Epoch Year2023
RAAN17.5258
Inclination51.638
Eccentricity0.0008302
Argument of Perigee126.4385
Mean Anonmoly233.7376
Mean Motion15.63475275
Decay Rate0.00120867
L11 55182U 98067UZ 23084.88808223 .00120867 00000+0 12664-2 0 9991
L22 55182 51.6380 17.5258 0008302 126.4385 233.7376 15.63475275 12241



Live tracking and technical data element details for HSKSAT (NORAD 55182). HSKSAT can be tracked NOW for your location showing map with azimuth and elevation plus other details from your city location.







IsCatalogInMostPopularTable: catalog: 55182, numindb: 14
Update: records affected: 1



GetName: 55182 HSKSAT

Hit Count: updated at: Mon, 27 Mar 2023 06:49:53 GMT